Regional Weather Roundup
Issued by NWS

Home | Current Version | Previous Version | Graphics & Text | Print | Product List | Glossary On
Versions: 1 2 3 4 5 6 7 8 9 10 11 12 13 14 15 16 17 18 19 20 21 22 23 24 25 26 27 28 29 30 31 32 33 34 35 36 37 38 39 40 41 42 43 44 45 46 47 48 49 50
416
ASUS45 KPSR 201410
RWRAZ

ARIZONA HOURLY REGIONAL WEATHER ROUNDUP
NATIONAL WEATHER SERVICE PHOENIX AZ
700 AM MST THU JUL 20 2017

NOTE: FAIR INDICATES FEW OR NO CLOUDS BELOW 12,000 FEET WITH NO
SIGNIFICANT WEATHER AND/OR OBSTRUCTIONS TO VISIBILITY.

AZZ001>003-036-201500-
NORTHWEST ARIZONA

CITY           SKY/WX    TMP DP  RH WIND       PRES   REMARKS
BULLHEAD CITY  PTSUNNY   90  72  55 CALM      29.91R
KINGMAN        PTSUNNY   76  65  68 SE9       30.13R
$$

AZZ004>008-015-016-018-201500-
NORTH CENTRAL ARIZONA

CITY           SKY/WX    TMP DP  RH WIND       PRES   REMARKS
GRAND CANYON   MOSUNNY   63  56  78 CALM      30.36R
WILLIAMS       CLOUDY    63  55  77 W5        30.37R
PRESCOTT       PTSUNNY   65  63  93 W5        30.25R
FLAGSTAFF      PTSUNNY   63  58  83 CALM      30.38R
PAYSON         PTSUNNY   68  61  77 CALM      30.29R
PAGE           SUNNY     77  58  51 CALM      30.17R
$$

AZZ009>014-017-201500-
NORTHEAST ARIZONA

CITY           SKY/WX    TMP DP  RH WIND       PRES   REMARKS
WINSLOW        MOSUNNY   69  60  73 E10       30.26R
SAINT JOHNS    CLOUDY    66  59  78 CALM      30.31R
WINDOW ROCK    MOSUNNY   65  52  62 CALM      30.37R
SHOW LOW       LGT RAIN  57  54  88 SW12      30.35F
$$

AZZ540-542>544-546-548-201500-
GREATER PHOENIX AREA

CITY           SKY/WX    TMP DP  RH WIND       PRES   REMARKS
PHOENIX        PTSUNNY   86  63  45 S8        29.97R
BUCKEYE        MOSUNNY   84  68  58 E7        29.98R
GLENDALE       PTSUNNY   86  70  58 CALM      29.99R
LUKE AFB       PTSUNNY   86  68  53 S6        29.97R
DEER VALLEY    PTSUNNY   86  64  47 SE8       29.99R
SCOTTSDALE     PTSUNNY   85  62  46 SE6       30.02R
MESA-FALCON    PTSUNNY   84  64  51 MISG      30.01R
MESA-GATEWAY   PTSUNNY   82  64  54 SE6       30.01R
CHANDLER       SUNNY     82  66  57 E7        29.99R
$$

AZZ539-553-201500-
SOUTHWEST MARICOPA COUNTY AND PINAL COUNTY

CITY           SKY/WX    TMP DP  RH WIND       PRES   REMARKS
CASA GRANDE    MOSUNNY   82  68  62 E8        30.02R
$$

AZZ503-504-507>509-201500-
SOUTHEAST ARIZONA

CITY           SKY/WX    TMP DP  RH WIND       PRES   REMARKS
TUCSON         CLOUDY    78  65  63 SE8       30.11R
DAVIS-MONTHAN  PTSUNNY   77  66  68 SE6       30.10R
RYAN FIELD     PTSUNNY   77  68  73 E7        30.09R
NOGALES        PTSUNNY   72  65  78 S5        30.18R
SIERRA VISTA   PTSUNNY   66  64  93 CALM      30.24R
DOUGLAS        PTSUNNY   67  64  90 CALM      30.20R
SAFFORD        PTSUNNY   73  66  78 CALM      30.14R
$$

AZZ532-201500-
SOUTHWEST ARIZONA

CITY           SKY/WX    TMP DP  RH WIND       PRES   REMARKS
YUMA           CLOUDY    90  60  36 SE13      29.90R
$$

CAZ041-043-047-048-061-525>527-560>570-201500-
SOUTHERN CALIFORNIA

CITY           SKY/WX    TMP DP  RH WIND       PRES   REMARKS
DOWNTOWN L.A.  CLOUDY    70  64  81 CALM      30.00R
L.A. AIRPORT   PTSUNNY   69  64  84 VRB3      30.00R
SAN DIEGO      CLOUDY    71  66  84 SW5       30.01R
BURBANK          N/A     68  62  81 E5        30.01R
ONTARIO        MOSUNNY   70  63  78 SW5       30.02R
RIVERSIDE      SUNNY     70  64  81 CALM      30.02R
PALM SPRINGS   MOSUNNY   85  61  44 CALM      29.94R
EL CENTRO NAS  PTSUNNY   84  71  65 E5        29.89R
IMPERIAL         N/A     85  71  63 SE8       29.87R
BLYTHE         CLOUDY    89  60  37 S6        29.91R
NEEDLES        PTSUNNY   91  66  43 N3        29.93R
$$

NVZ020-UTZ003-201500-
SOUTHERN NEVADA-UTAH

CITY           SKY/WX    TMP DP  RH WIND       PRES   REMARKS
LAS VEGAS      CLOUDY    83  68  60 SW3       30.01R
SALT LAKE CITY PTSUNNY   79  56  45 S18G26    30.07R
$$

NMZ009-TXZ055-201500-
NEW MEXICO-WEST TEXAS

CITY           SKY/WX    TMP DP  RH WIND       PRES   REMARKS
ALBUQUERQUE    PTSUNNY   73  50  44 S8        30.31R
EL PASO        MOSUNNY   73  63  70 N5        30.21R
$$


........................KEY........................
SKY/WX - SKY CONDITION/WEATHER
TMP    - TEMPERATURE IN FAHRENHEIT
DP     - DEW POINT IN FAHRENHEIT
RH     - RELATIVE HUMIDITY IN PERCENT
WIND   - DIRECTION AND SPEED IN MILES PER HOUR (MPH)
VRB    - VARIABLE WIND DIRECTION
PRES   - MEAN SEA LEVEL PRESSURE IN INCHES OF MERCURY
         F - FALLING PRESSURE   R - RISING PRESSURE
         S - STEADY PRESSURE
VSB    - VISIBILITY IN MILES
HX     - HEAT INDEX IN FAHRENHEIT
WCI    - WIND CHILL INDEX IN FAHRENHEIT
TC     - TEMPERATURE IN CELSIUS WHICH IS ALSO KNOWN AS
         TEMPERATURE IN CENTIGRADE
AFB    - AIR FORCE BASE
         LUKE AFB IS LUKE AIR FORCE BASE
         DAVIS-MONTHAN IS DAVIS-MONTHAN AIR FORCE BASE
NAS    - NAVAL AIR STATION
         EL CENTRO NAS IS EL CENTRO NAVAL AIR STATION
N/A    - NOT AVAILABLE





USA.gov is the U.S. government's official web portal to all federal, state and local government web resources and services.